sat.trackr.live / text

‹ back to catalog

STARLINK-37107

NORAD 68294 · 2026-057A

PAYLOAD ACTIVE UNKNOWN

§ Identity

Operator
Country
US
Launch date
2026-03-20
Launch site
AFWTR
Launch vehicle
Mass (kg)
RCS (m²)

Purposes: comms

External: N2YO · Heavens-Above · Gunter

§ Orbital elements

Epoch: 2026-09-20T02:21:42.871968Z

Period
93.91 min
Inclination
97.2846°
Eccentricity
0.0001612
Mean motion
15.33447875 rev/d
Perigee alt
464.4 km
Apogee alt
466.6 km
Semi-major
6,843.7 km
B*
2.3114e-4
RAAN
28.5257°
Arg perigee
86.6538°
Mean anomaly
273.4889°
Rev number
2,845

§ Raw data

STARLINK-371071 68294U 26057A   26263.09841287  .00007395  00000+0  23114-3 0  99942 68294  97.2846  28.5257 0001612  86.6538 273.4889 15.33447875 28459

JSON: /api/v1/satellites/68294 · /tle

For live sub-satellite position, see the globe view (requires WebGL).

§ Visibility from observer

Set your observer location to see the next 7 days of passes ≥ 10°. The values pass through the URL so the page stays shareable.

No JS? Fill the form by hand. The geolocation button needs JavaScript.